Location: Eaton
(41.3139°N, 82.0207°W)
Time: 02:09:28
(UTC+00:00)

Cosmos 2266 Rocket - Pass Details

Date: 17 June 2021
Orbit: 935 x 1007 km, 82.9° (Epoch: 02 August)

Event Time Altitude Azimuth Distance (km) Brightness Sun altitude
Exits shadow 08:34:24 - 179° (S) 3,113 6.2 -12.4°
Reaches altitude 10° 08:35:32 10° 179° (S) 2,687 5.9 -12.2°
Maximum altitude 08:41:39 75° 95° (E) 983 4.1 -11.4°
Drops below altitude 10° 08:47:43 10° 11° (N) 2,665 7.2 -10.6°
Sets 08:50:12 0° 10° (N) 3,608 7.9 -10.3°
